Regional Weather Roundup
Issued by NWS

Home | Current Version | Previous Version | Text Only | Print | Product List | Glossary On
Versions: 1 2 3 4 5 6 7 8 9 10 11 12 13 14 15 16 17 18 19 20 21 22 23 24 25 26 27 28 29 30 31 32 33 34 35 36 37 38 39 40 41 42 43 44 45 46 47 48 49 50
000
ASUS44 KFWD 032110
RWRTX
NORTH TEXAS HOURLY WEATHER ROUNDUP
NATIONAL WEATHER SERVICE FORT WORTH TX
400 PM CDT MON AUG 03 2015

NOTE: "FAIR" INDICATES FEW OR NO CLOUDS BELOW 12,000 FEET WITH NO
SIGNIFICANT WEATHER AND/OR OBSTRUCTIONS TO VISIBILITY.

TXZ118-119-032200-
DALLAS/FORT WORTH METROPLEX

CITY           SKY/WX    TMP DP  RH WIND       PRES   REMARKS
DFW AIRPORT    MOSUNNY   98  56  24 VRB6      29.88F HX  96
DALLAS LOVE    MOSUNNY   98  57  25 E7        29.88F HX  97
FTW MEACHAM    MOSUNNY  100  58  24 E12G17    29.88F HX  99
DAL-EXECUTIVE  MOSUNNY   98  59  27 CALM      29.88F HX  98
FTW-ALLIANCE   PTSUNNY  100  58  24 VRB6G18   29.88F HX  99
FTW-NAS-JRB    PTSUNNY   98  60  28 SE9       29.88F HX  98
FTW-SPINKS     MOSUNNY   99  57  25 S6        29.90F HX  97
ARLINGTON      SUNNY    100  56  23 SE8       29.89F HX  99
GRAND PRAIRIE  SUNNY     99  63  30 CALM      29.89F HX 100
ADDISON        MOSUNNY   99  55  23 SE3       29.89F HX  97
MESQUITE       MOSUNNY   99  57  25 CALM      29.89F HX  97
LANCASTER      SUNNY     99  55  22 S9        29.89F HX  97
$$

TXZ091>094-102>105-117-120-121-131>134-032200-
NORTH CENTRAL TEXAS

CITY           SKY/WX    TMP DP  RH WIND       PRES   REMARKS
SHRMAN/DENISON MOSUNNY   97  61  30 S9        29.91F HX  97
GAINESVILLE    PTSUNNY   94  59  30 SE8       29.92F HX  93
BOWIE          CLOUDY    92  61  35 CALM      29.91F HX  91
DECATUR        PTSUNNY   97  58  27 CALM      29.91F HX  95
DENTON         MOSUNNY   96  58  27 SE7       29.88F HX  95
MCKINNEY       MOSUNNY   98  57  25 MISG      29.89F HX  97
GREENVILLE     SUNNY     99  54  22 S5        29.90F HX  96
ROCKWALL       MOSUNNY   98  62  30 CALM      29.88F HX  98
TERRELL        SUNNY     99  60  27 SE12      29.89F HX  99
WAXAHACHIE     SUNNY     97  60  29 SE5       29.90F HX  97
CLEBURNE       SUNNY     99  59  26 MISG        N/A  HX  98
GRANBURY       SUNNY     99  58  25 E3        29.90F HX  98
$$

TXZ083>090-098>101-113>116-127>130-139>142-154-155-032200-
WESTERN NORTH TEXAS

CITY           SKY/WX    TMP DP  RH WIND       PRES   REMARKS
WICHITA FALLS  PTSUNNY   89  68  49 E5        29.92F HX  93
WF-KICKAPOO    PTSUNNY   93  64  37 CALM      29.92F HX  95
VERNON         PTSUNNY   87  64  45 SE8       29.93F
ABILENE        MOSUNNY   97  61  30 SE14      29.93F HX  97
ABILENE-DYESS  PTSUNNY   96  64  34 SE10      29.91F HX  98
BRECKENRIDGE   MOSUNNY   98  60  27 E5        29.91F HX  98
GRAHAM         PTSUNNY   93  65  39 E6        29.89F HX  95
MINERAL WELLS  MOSUNNY   96  64  34 SE7       29.89F HX  98
STEPHENVILLE   SUNNY     95  60  30 CALM      29.95F HX  94
COMANCHE       MOSUNNY   98  62  30 SE9       29.92F HX  99
COLEMAN        SUNNY     98  64  33 SE6       29.93F HX 100
BRADY          SUNNY     99  63  30 SE8       29.93F HX 100
$$

TXZ143>147-156>162-174-175-032200-
CENTRAL TEXAS

CITY           SKY/WX    TMP DP  RH WIND       PRES   REMARKS
WACO           SUNNY     98  59  27 VRB5      29.89F HX  98
WACO-TSTC        N/A     99  59  26 S9        29.89F HX  98
HILLSBORO      SUNNY    100  57  24 E9        29.89F HX  99
CORSICANA      SUNNY     99  59  26 E8        29.90F HX  99
MEXIA          MOSUNNY   98  61  29 N6G23     29.89F HX  99
HEARNE         MOSUNNY   98  62  30 SE8       29.89F HX  98
CAMERON        SUNNY     98  62  30 E9        29.88F HX  99
TEMPLE         MOSUNNY   97  61  30 E6        29.90S HX  97
KILLEEN        SUNNY     97  58  27 E12       29.90F HX  95
KILLEEN-SKYLRK SUNNY     97  61  30 E3        29.90F HX  97
FORT HOOD      SUNNY     96  60  29 SW3       29.89F HX  96
GATESVILLE     SUNNY     99  61  28 SE7       29.92F HX  99
HAMILTON       MOSUNNY   98  57  25 E8        29.92F HX  97
LAMPASAS       MOSUNNY   98  61  28 E9        29.91F HX  99
$$

TXZ095>097-106>112-122>126-135>138-148>153-164>167-032200-
EAST TEXAS

CITY           SKY/WX    TMP DP  RH WIND       PRES   REMARKS
PARIS          MOSUNNY   97  61  30 E5        29.91F HX  97
SULPHUR SPRNGS SUNNY     97  56  25 CALM      29.92F HX  96
MOUNT PLEASANT MOSUNNY   99  55  23 SE3       29.90F HX  97
GILMER         MOSUNNY   96  60  29 NE6       29.90F HX  96
MINEOLA        MOSUNNY   99  52  20 CALM      29.91F HX  96
TYLER          MOSUNNY   98  60  28 NE6       29.90F HX  98
LONGVIEW       MOSUNNY   99  60  27 VRB3      29.89F HX  99
MARSHALL       MOSUNNY  100  58  25 E6        29.91F HX  99
ATHENS         PTSUNNY   95  63  34 E5        29.89F HX  96
PALESTINE      SUNNY     98  58  26 NE5       29.91F HX  97
JACKSONVILLE   MOSUNNY   97  55  24 E5        29.93F HX  95
HENDERSON      MOSUNNY   98  57  25 E7        29.91F HX  97
CENTER         FAIR      99  58  26 SE7       29.89F HX  98
NACOGDOCHES    SUNNY     95  61  31 S5        29.89F HX  95
LUFKIN         SUNNY     96  61  31 E10       29.89F HX  96
$$

SUPPLEMENTAL OBSERVATIONS (CENTRAL)

CITY           SKY/WX    TMP DP  RH WIND       PRES   REMARKS
CADDO GRASSLND   N/A     99  55  23 S7          N/A  HX  97
PAT MAYSE LAKE   N/A     95  57  28 SE7         N/A  HX  94
MCGREGOR         N/A     99  57  25 E8G16       N/A  HX  97
TEMPLE           N/A     97  59  28 E8G20       N/A  HX  96
$$

SUPPLEMENTAL OBSERVATIONS (WEST)

CITY           SKY/WX    TMP DP  RH WIND       PRES   REMARKS
MILLERS CREEK    N/A     95  64  36 S7          N/A  HX  97
POSSUM KINGDOM   N/A     97  61  30 E7          N/A  HX  97
LBJ GRASSLAND    N/A     97  59  28 S3          N/A  HX  96
GRANBURY         N/A    100  59  25 E7          N/A  HX 100
HAMBY            N/A     97  61  30 SE8G16      N/A  HX  97
IVIE RESERVOIR   N/A     99  57  25 SE10G18     N/A  HX  97
COLORADO BEND    N/A     99  57  25 SE9         N/A  HX  97
$$

SUPPLEMENTAL OBSERVATIONS (EAST)

CITY           SKY/WX    TMP DP  RH WIND       PRES   REMARKS
TEXARKANA        N/A    100  61  27 S3          N/A  HX 101
LINDEN           N/A     99  55  23 E6          N/A  HX  97
LUFKIN           N/A     97  54  23 MISG        N/A  HX  94
N SABINE NF      N/A    100  63  28 MISG        N/A  HX 102
$$

SUPPLEMENTAL OBSERVATIONS ARE A COLLECTION OF AUTOMATED INSTRUMENTS
THAT ARE MAINTAINED BY A VARIETY OF FEDERAL AND STATE AGENCIES.
CERTAIN ELEMENTS...SUCH AS HUMIDITY VALUES AND SUSTAINED WIND
SPEEDS...MAY BE APPROXIMATED.



USA.gov is the U.S. government's official web portal to all federal, state and local government web resources and services.